Regional Weather Roundup
Issued by NWS

Home | Current Version | Previous Version | Text Only | Print | Product List | Glossary Off
Versions: 1 2 3 4 5 6 7 8 9 10 11 12 13 14 15 16 17 18 19 20 21 22 23 24 25 26 27 28 29 30 31 32 33 34 35 36 37 38 39 40 41 42 43 44 45 46 47 48 49 50

000
ASUS43 KLSX 251357
RWRMO

WEATHER SUMMARY FOR MISSOURI
NATIONAL WEATHER SERVICE SPRINGFIELD MO
800 AM CST SAT FEB 25 2017

NOTE: "FAIR" INDICATES FEW OR NO CLOUDS BELOW 12,000 FEET WITH NO
       SIGNIFICANT WEATHER AND/OR OBSTRUCTIONS TO VISIBILITY.
       CURRENT SKY AND/OR WEATHER CONDITIONS ARE NOT AVAILABLE FOR
       CHILLICOTHE AND FARMINGTON.

MOZ001>031-035>038-043-044-053-054-251500-
...NORTHERN AND WESTERN MISSOURI...

CITY           SKY/WX    TMP DP  RH WIND       PRES   REMARKS
KANSAS CTY INT MOSUNNY   22  17  81 W7        30.15R WCI  13
LEE`S SUMMIT   SUNNY     24  16  71 W10       30.15R WCI  14
ST JOSEPH      SUNNY     21  17  84 W8        30.16R WCI  11
CHILLICOTHE      N/A     22  13  68 NW8G20    30.12R WCI  12

$$
MOZ066>068-077>081-088>096-101>105-251500-
...SOUTHWEST MISSOURI...

CITY           SKY/WX    TMP DP  RH WIND       PRES   REMARKS
SPRINGFIELD    SUNNY     23  17  78 NW9       30.11R WCI  13
JOPLIN         SUNNY     24  20  84 NW8       30.18R WCI  15
BRANSON        SUNNY     27  18  69 W6        30.13R WCI  20

$$
MOZ032>034-039>042-045>050-055>058-069>072-251500-
...CENTRAL MISSOURI...

CITY           SKY/WX    TMP DP  RH WIND       PRES   REMARKS
COLUMBIA       NOT AVBL
JEFFERSON CITY MOSUNNY   25  16  68 NW12      30.11R WCI  14
ROLLA          SUNNY     24  16  71 W12       30.05R WCI  13
SEDALIA        SUNNY     25  15  66 NW14      30.12R WCI  13
WARRENSBURG    SUNNY     25  16  68 W9        30.14R WCI  15
OSAGE BEACH    MOSUNNY   27  16  63 NW3       30.12R

$$
MOZ051-052-059>065-251500-
...EAST CENTRAL MISSOURI...

CITY           SKY/WX    TMP DP  RH WIND       PRES   REMARKS
ST LOUIS INTL  PTSUNNY   28  14  55 W18G32    30.02R WCI  15

$$
MOZ072>076-082>087-097>100-106>115-251500-
...SOUTH CENTRAL AND SOUTHEAST MISSOURI...

CITY           SKY/WX    TMP DP  RH WIND       PRES   REMARKS
CAPE GIRARDEAU CLOUDY    32  17  54 NW13G23   30.06R WCI  22
POPLAR BLUFF   SUNNY     32  18  56 NW9       30.08R WCI  24

$$



USA.gov is the U.S. government's official web portal to all federal, state and local government web resources and services.